contact:dominique.lefevre@mio.osupytheas.fr, maurice.libes@osupytheas.fr, didier.mallarino@osupytheas.fr
Project:EMSO http://www.emso-fr.org/EMSO-France
Depth: 2436.0 m
Title:EMSO Ligure Ouest : Data MII capteur AQUADOPP
Date,Latitude,Longitude,X_East,Y_North,Z_Up,Amplitude_X,Amplitude_Y,Amplitude_Z,Batterie,SoundSpeed,Heading,Pitch,Roll,Pressure,TIS,Speed,Direction
, degrees North, degrees East, m.s-1, m.s-1,m.s-1, 1, 1, 1, Volt, m.s-1, degree, degree, degree, dbar, degree_C, m.s-1, degree
2022-02-14T00:04:03,42.805,6.029,0.027,-0.003,-0.009,102.0,105.0,100.0,13.3,1505.2,327.0,-0.8,1.8,2470.618,13.28,0.027,96.3
2022-02-14T00:07:03,42.805,6.029,0.04,-0.015,0.015,102.0,104.0,101.0,13.3,1505.2,326.5,-0.7,1.8,2470.644,13.28,0.042,110.6
2022-02-14T00:10:03,42.805,6.029,0.033,0.008,0.0,102.0,105.0,101.0,13.4,1505.2,327.1,-0.8,1.8,2470.595,13.28,0.033,76.4
2022-02-14T00:13:03,42.805,6.029,0.01,-0.007,-0.043,101.0,104.0,102.0,13.4,1505.2,329.6,-0.8,1.8,2470.634,13.28,0.012,125.0
2022-02-14T00:16:03,42.805,6.029,0.042,-0.014,-0.014,103.0,104.0,101.0,13.4,1505.2,326.1,-0.8,1.8,2470.604,13.28,0.044,108.4
2022-02-14T00:19:03,42.805,6.029,0.017,-0.015,-0.004,102.0,104.0,101.0,13.4,1505.2,329.5,-0.8,1.9,2470.635,13.28,0.022,131.4
2022-02-14T00:22:03,42.805,6.029,0.014,0.005,0.016,101.0,103.0,101.0,13.4,1505.2,322.8,-0.8,1.8,2470.64,13.28,0.014,70.4
2022-02-14T00:25:03,42.805,6.029,0.033,0.01,0.018,102.0,105.0,100.0,13.3,1505.2,331.4,-0.8,1.8,2470.626,13.28,0.034,73.1
2022-02-14T00:28:03,42.805,6.029,0.021,-0.003,-0.034,102.0,105.0,100.0,13.3,1505.2,324.4,-0.8,1.8,2470.639,13.28,0.021,98.1
2022-02-14T00:31:03,42.805,6.029,0.005,0.016,-0.016,102.0,105.0,102.0,13.4,1505.2,328.7,-0.8,1.8,2470.617,13.28,0.016,17.4
2022-02-14T00:34:03,42.805,6.029,0.047,-0.006,-0.029,104.0,104.0,100.0,13.3,1505.2,326.3,-0.7,1.8,2470.629,13.28,0.047,97.3
2022-02-14T00:37:03,42.805,6.029,0.064,-0.028,-0.013,103.0,105.0,100.0,13.4,1505.2,326.3,-0.8,1.8,2470.618,13.28,0.069,113.6
2022-02-14T00:40:03,42.805,6.029,0.04,-0.001,0.013,102.0,105.0,101.0,13.4,1505.2,326.3,-0.8,1.8,2470.617,13.28,0.04,91.4
2022-02-14T00:43:03,42.805,6.029,0.049,0.0,0.011,102.0,105.0,101.0,13.4,1505.2,328.8,-0.7,1.8,2470.584,13.28,0.049,90.0
2022-02-14T00:46:03,42.805,6.029,0.029,-0.032,-0.027,103.0,105.0,100.0,13.4,1505.2,331.8,-0.8,1.8,2470.617,13.28,0.043,137.8
2022-02-14T00:49:03,42.805,6.029,0.036,-0.006,0.004,102.0,105.0,101.0,13.4,1505.2,325.4,-0.8,1.8,2470.634,13.28,0.036,99.5
2022-02-14T00:52:03,42.805,6.029,0.031,-0.002,0.0,102.0,104.0,101.0,13.4,1505.2,328.6,-0.7,1.9,2470.601,13.28,0.031,93.7
2022-02-14T00:55:03,42.805,6.029,0.028,0.005,0.0,102.0,105.0,101.0,13.4,1505.2,327.3,-0.8,1.8,2470.647,13.28,0.028,79.9
2022-02-14T00:58:03,42.805,6.029,0.034,0.004,0.019,103.0,104.0,102.0,13.4,1505.2,326.9,-0.8,1.8,2470.619,13.28,0.034,83.3
2022-02-14T01:04:03,42.805,6.029,0.054,-0.023,-0.01,106.0,107.0,103.0,13.3,1505.2,326.3,-0.7,1.8,2470.66,13.28,0.058,113.1
2022-02-14T01:07:03,42.805,6.029,0.003,-0.027,0.006,102.0,107.0,103.0,13.4,1505.2,325.7,-0.8,1.8,2470.613,13.28,0.027,173.7
2022-02-14T01:10:03,42.805,6.029,0.023,0.019,0.001,103.0,106.0,101.0,13.4,1505.2,324.6,-0.8,1.9,2470.625,13.28,0.029,50.4
2022-02-14T01:13:03,42.805,6.029,0.033,0.0,-0.009,102.0,106.0,101.0,13.4,1505.2,325.3,-0.8,1.8,2470.624,13.28,0.033,90.0
2022-02-14T01:16:03,42.805,6.029,0.025,-0.009,-0.002,101.0,105.0,102.0,13.4,1505.2,329.3,-0.7,1.8,2470.658,13.28,0.026,109.8
2022-02-14T01:19:03,42.805,6.029,0.018,-0.003,0.005,104.0,105.0,101.0,13.3,1505.2,330.7,-0.7,1.8,2470.628,13.28,0.018,99.5
2022-02-14T01:22:03,42.805,6.029,0.024,-0.001,0.01,104.0,105.0,101.0,13.3,1505.2,327.2,-0.8,1.8,2470.651,13.28,0.024,92.4
2022-02-14T01:25:03,42.805,6.029,0.031,0.012,-0.012,103.0,105.0,101.0,13.3,1505.2,325.8,-0.8,1.9,2470.629,13.28,0.033,68.8
2022-02-14T01:28:03,42.805,6.029,0.04,0.017,0.039,102.0,107.0,101.0,13.3,1505.2,325.6,-0.8,1.8,2470.642,13.28,0.043,67.0
2022-02-14T01:31:03,42.805,6.029,0.022,-0.014,-0.013,104.0,103.0,101.0,13.4,1505.2,327.0,-0.8,1.8,2470.65,13.28,0.026,122.5
2022-02-14T01:34:03,42.805,6.029,0.03,-0.003,0.002,102.0,105.0,101.0,13.4,1505.2,327.8,-0.8,1.8,2470.616,13.28,0.03,95.7
2022-02-14T01:37:03,42.805,6.029,0.033,-0.002,0.012,102.0,105.0,102.0,13.3,1505.2,326.9,-0.8,1.8,2470.66,13.28,0.033,93.5
2022-02-14T01:40:03,42.805,6.029,0.045,-0.001,-0.025,102.0,105.0,102.0,13.4,1505.2,323.9,-0.7,1.8,2470.63,13.28,0.045,91.3
2022-02-14T01:43:03,42.805,6.029,0.03,0.003,-0.005,103.0,104.0,101.0,13.4,1505.2,327.9,-0.8,1.8,2470.663,13.28,0.03,84.3
2022-02-14T01:46:03,42.805,6.029,0.036,0.001,0.0,103.0,105.0,101.0,13.4,1505.2,325.8,-0.8,1.8,2470.686,13.28,0.036,88.4
2022-02-14T01:49:03,42.805,6.029,0.035,0.028,0.012,104.0,105.0,102.0,13.4,1505.2,326.1,-0.7,1.8,2470.647,13.28,0.044,51.3
2022-02-14T01:52:03,42.805,6.029,0.034,0.0,0.003,104.0,104.0,101.0,13.4,1505.2,330.6,-0.8,1.8,2470.637,13.28,0.034,90.0
2022-02-14T01:55:03,42.805,6.029,0.041,0.006,0.008,103.0,104.0,102.0,13.4,1505.2,327.2,-0.7,1.8,2470.656,13.28,0.041,81.7
2022-02-14T01:58:03,42.805,6.029,0.048,0.001,0.011,103.0,103.0,102.0,13.4,1505.2,323.7,-0.8,1.8,2470.638,13.28,0.048,88.8
2022-02-14T02:04:03,42.805,6.029,0.021,-0.006,0.018,102.0,104.0,102.0,13.3,1505.2,331.8,-0.7,1.8,2470.689,13.28,0.021,105.9
2022-02-14T02:07:03,42.805,6.029,0.042,-0.002,-0.005,103.0,104.0,101.0,13.3,1505.2,326.0,-0.7,1.9,2470.697,13.28,0.042,92.7
2022-02-14T02:10:03,42.805,6.029,0.032,0.017,-0.014,102.0,106.0,102.0,13.4,1505.2,323.9,-0.7,1.8,2470.722,13.28,0.036,62.0
2022-02-14T02:13:03,42.805,6.029,0.049,0.017,0.034,103.0,105.0,101.0,13.4,1505.2,326.6,-0.7,1.8,2470.685,13.28,0.051,70.9
2022-02-14T02:16:03,42.805,6.029,0.047,0.025,0.025,103.0,107.0,102.0,13.3,1505.2,331.8,-0.8,1.8,2470.715,13.28,0.053,62.0
2022-02-14T02:19:03,42.805,6.029,0.02,0.022,0.017,103.0,105.0,102.0,13.3,1505.2,326.1,-0.8,1.8,2470.691,13.28,0.029,42.3
2022-02-14T02:22:03,42.805,6.029,0.042,0.0,0.005,104.0,107.0,101.0,13.4,1505.2,329.4,-0.8,1.8,2470.718,13.28,0.042,90.0
2022-02-14T02:25:03,42.805,6.029,0.02,0.011,0.022,104.0,104.0,102.0,13.3,1505.2,329.0,-0.8,1.8,2470.722,13.28,0.022,61.2
2022-02-14T02:28:03,42.805,6.029,0.022,-0.001,0.041,104.0,106.0,101.0,13.3,1505.2,328.0,-0.8,1.8,2470.716,13.28,0.022,92.6
2022-02-14T02:31:03,42.805,6.029,0.065,0.011,0.003,104.0,106.0,101.0,13.3,1505.2,324.2,-0.8,1.8,2470.678,13.28,0.065,80.4
2022-02-14T02:34:03,42.805,6.029,0.04,0.004,0.018,104.0,107.0,102.0,13.3,1505.2,331.2,-0.8,1.8,2470.75,13.28,0.04,84.3
2022-02-14T02:37:03,42.805,6.029,0.015,0.029,0.02,103.0,107.0,101.0,13.4,1505.2,326.1,-0.8,1.8,2470.685,13.28,0.032,27.4
2022-02-14T02:40:03,42.805,6.029,0.037,0.009,0.025,104.0,107.0,101.0,13.4,1505.2,326.4,-0.8,1.8,2470.696,13.28,0.038,76.3
2022-02-14T02:43:03,42.805,6.029,0.036,0.004,0.02,103.0,107.0,102.0,13.4,1505.2,331.2,-0.7,1.8,2470.717,13.28,0.036,83.7
2022-02-14T02:46:03,42.805,6.029,0.018,-0.006,0.001,104.0,106.0,102.0,13.4,1505.2,326.7,-0.7,1.8,2470.693,13.28,0.018,108.4
2022-02-14T02:49:03,42.805,6.029,0.038,0.011,-0.007,104.0,105.0,102.0,13.4,1505.2,326.4,-0.7,1.8,2470.72,13.28,0.039,73.9
2022-02-14T02:52:03,42.805,6.029,0.031,0.009,0.016,105.0,104.0,103.0,13.3,1505.2,328.1,-0.7,1.8,2470.692,13.28,0.032,73.8
2022-02-14T02:55:03,42.805,6.029,0.04,0.004,0.01,105.0,107.0,101.0,13.3,1505.2,325.0,-0.7,1.8,2470.741,13.28,0.04,84.3
2022-02-14T02:58:03,42.805,6.029,0.037,-0.009,-0.014,104.0,106.0,102.0,13.4,1505.2,326.5,-0.8,1.8,2470.713,13.28,0.038,103.7
2022-02-14T03:04:03,42.805,6.029,0.02,0.018,-0.011,104.0,107.0,102.0,13.4,1505.2,330.1,-0.8,1.8,2470.751,13.28,0.026,48.0
2022-02-14T03:07:03,42.805,6.029,0.043,-0.008,0.016,104.0,106.0,102.0,13.4,1505.2,331.3,-0.8,1.8,2470.748,13.28,0.043,100.5
2022-02-14T03:10:03,42.805,6.029,0.026,0.018,0.026,104.0,106.0,102.0,13.4,1505.2,331.0,-0.8,1.8,2470.741,13.28,0.031,55.3
2022-02-14T03:13:03,42.805,6.029,0.023,0.028,0.001,106.0,107.0,101.0,13.3,1505.2,327.5,-0.7,1.8,2470.733,13.28,0.036,39.4
2022-02-14T03:16:03,42.805,6.029,0.05,0.013,0.008,105.0,106.0,104.0,13.4,1505.2,324.9,-0.7,1.8,2470.707,13.28,0.051,75.4
2022-02-14T03:19:03,42.805,6.029,0.053,0.01,-0.005,106.0,107.0,102.0,13.4,1505.2,329.1,-0.8,1.8,2470.741,13.28,0.053,79.3
2022-02-14T03:22:03,42.805,6.029,0.025,0.007,0.0,105.0,107.0,102.0,13.3,1505.2,328.3,-0.8,1.8,2470.719,13.28,0.025,74.4
2022-02-14T03:25:03,42.805,6.029,0.043,0.002,0.004,105.0,108.0,101.0,13.4,1505.2,323.3,-0.7,1.8,2470.723,13.28,0.043,87.3
2022-02-14T03:28:03,42.805,6.029,0.055,0.007,0.025,104.0,109.0,103.0,13.4,1505.2,325.7,-0.8,1.8,2470.746,13.28,0.055,82.7
2022-02-14T03:31:03,42.805,6.029,0.035,0.009,-0.001,103.0,107.0,103.0,13.3,1505.2,329.7,-0.7,1.8,2470.721,13.28,0.036,75.6
2022-02-14T03:34:03,42.805,6.029,0.023,0.021,0.03,105.0,107.0,103.0,13.3,1505.2,330.7,-0.8,1.8,2470.757,13.28,0.031,47.6
2022-02-14T03:37:03,42.805,6.029,0.044,0.001,0.008,104.0,108.0,103.0,13.4,1505.2,326.3,-0.8,1.8,2470.746,13.28,0.044,88.7
2022-02-14T03:40:03,42.805,6.029,0.055,0.006,0.003,106.0,106.0,103.0,13.3,1505.2,328.0,-0.8,1.8,2470.729,13.28,0.055,83.8
2022-02-14T03:43:03,42.805,6.029,0.029,0.008,0.003,105.0,108.0,103.0,13.3,1505.2,324.2,-0.7,1.8,2470.728,13.28,0.03,74.6
2022-02-14T03:46:03,42.805,6.029,0.052,-0.001,-0.014,106.0,107.0,103.0,13.4,1505.2,324.4,-0.7,1.8,2470.76,13.28,0.052,91.1
2022-02-14T03:49:03,42.805,6.029,0.03,0.002,0.001,105.0,107.0,103.0,13.4,1505.2,331.1,-0.8,1.8,2470.717,13.28,0.03,86.2
2022-02-14T03:52:03,42.805,6.029,0.031,0.015,0.028,106.0,107.0,103.0,13.3,1505.2,329.3,-0.8,1.8,2470.717,13.28,0.034,64.2
2022-02-14T03:55:03,42.805,6.029,0.035,0.01,-0.017,104.0,108.0,103.0,13.4,1505.2,325.0,-0.8,1.8,2470.758,13.28,0.036,74.1
2022-02-14T03:58:03,42.805,6.029,0.04,0.0,0.033,105.0,106.0,103.0,13.4,1505.2,326.1,-0.8,1.8,2470.746,13.28,0.04,90.0
2022-02-14T04:04:03,42.805,6.029,0.062,0.004,0.001,105.0,106.0,102.0,13.4,1505.2,329.6,-0.8,1.8,2470.818,13.28,0.062,86.3
2022-02-14T04:07:03,42.805,6.029,0.044,-0.01,-0.024,106.0,110.0,103.0,13.4,1505.2,329.1,-0.8,1.8,2470.783,13.28,0.045,102.8
2022-02-14T04:10:03,42.805,6.029,0.023,-0.002,0.024,107.0,105.0,103.0,13.3,1505.2,328.5,-0.8,1.8,2470.756,13.28,0.023,95.0
2022-02-14T04:13:03,42.805,6.029,0.044,0.004,0.009,105.0,107.0,103.0,13.4,1505.2,325.3,-0.8,1.8,2470.788,13.28,0.044,84.8
2022-02-14T04:16:03,42.805,6.029,0.027,0.008,0.032,105.0,105.0,103.0,13.3,1505.2,325.7,-0.8,1.8,2470.787,13.28,0.028,73.5
2022-02-14T04:19:03,42.805,6.029,0.019,-0.001,-0.01,106.0,107.0,103.0,13.4,1505.2,326.9,-0.8,1.8,2470.822,13.28,0.019,93.0
2022-02-14T04:22:03,42.805,6.029,0.05,0.0,-0.008,105.0,106.0,103.0,13.3,1505.2,330.0,-0.8,1.8,2470.773,13.28,0.05,90.0
2022-02-14T04:25:03,42.805,6.029,0.038,0.007,-0.021,105.0,107.0,102.0,13.4,1505.2,330.2,-0.8,1.8,2470.787,13.28,0.038,79.6
2022-02-14T04:28:03,42.805,6.029,0.049,-0.003,0.015,105.0,105.0,103.0,13.4,1505.2,330.8,-0.8,1.8,2470.788,13.28,0.049,93.5
2022-02-14T04:31:03,42.805,6.029,0.04,-0.001,0.006,105.0,108.0,103.0,13.3,1505.2,326.9,-0.8,1.8,2470.811,13.28,0.04,91.4
2022-02-14T04:34:03,42.805,6.029,0.026,-0.004,-0.013,105.0,107.0,103.0,13.3,1505.2,324.3,-0.8,1.8,2470.766,13.28,0.026,98.7
2022-02-14T04:37:03,42.805,6.029,0.042,-0.003,-0.016,104.0,106.0,102.0,13.4,1505.2,328.5,-0.7,1.8,2470.785,13.28,0.042,94.1
2022-02-14T04:40:03,42.805,6.029,0.056,0.01,-0.003,105.0,107.0,102.0,13.4,1505.2,323.2,-0.7,1.8,2470.791,13.28,0.056,79.9
2022-02-14T04:43:03,42.805,6.029,0.041,0.0,-0.004,105.0,106.0,103.0,13.3,1505.2,330.7,-0.7,1.8,2470.815,13.28,0.041,90.0
2022-02-14T04:46:03,42.805,6.029,0.045,-0.011,0.017,105.0,105.0,103.0,13.4,1505.2,325.4,-0.8,1.8,2470.769,13.28,0.046,103.7
2022-02-14T04:49:03,42.805,6.029,0.027,-0.004,-0.008,104.0,105.0,103.0,13.4,1505.2,329.2,-0.7,1.8,2470.809,13.28,0.027,98.4
2022-02-14T04:52:03,42.805,6.029,0.054,0.005,0.013,105.0,105.0,103.0,13.3,1505.2,327.3,-0.8,1.8,2470.795,13.28,0.054,84.7
2022-02-14T04:55:03,42.805,6.029,0.076,-0.001,0.017,105.0,106.0,103.0,13.4,1505.2,327.4,-0.8,1.8,2470.774,13.28,0.076,90.8
2022-02-14T04:58:03,42.805,6.029,0.051,-0.001,0.0,105.0,106.0,103.0,13.4,1505.2,329.0,-0.7,1.8,2470.798,13.28,0.051,91.1
2022-02-14T05:04:03,42.805,6.029,0.028,-0.008,-0.023,105.0,106.0,103.0,13.3,1505.2,328.0,-0.8,1.8,2470.806,13.28,0.029,105.9
2022-02-14T05:07:03,42.805,6.029,0.068,-0.012,0.0,105.0,106.0,103.0,13.3,1505.2,329.0,-0.7,1.8,2470.807,13.28,0.069,100.0
2022-02-14T05:10:03,42.805,6.029,0.049,-0.015,-0.035,104.0,107.0,102.0,13.4,1505.2,324.1,-0.8,1.8,2470.838,13.28,0.051,107.0
2022-02-14T05:13:03,42.805,6.029,0.016,-0.009,-0.022,104.0,105.0,102.0,13.4,1505.2,331.4,-0.8,1.8,2470.829,13.28,0.018,119.4
2022-02-14T05:16:03,42.805,6.029,0.038,-0.01,-0.021,105.0,105.0,102.0,13.3,1505.2,328.4,-0.8,1.8,2470.822,13.28,0.039,104.7
2022-02-14T05:19:03,42.805,6.029,0.039,-0.006,0.006,106.0,105.0,102.0,13.4,1505.2,326.7,-0.8,1.8,2470.8,13.28,0.039,98.7
2022-02-14T05:22:03,42.805,6.029,0.046,0.0,-0.015,104.0,105.0,102.0,13.4,1505.2,331.8,-0.8,1.8,2470.817,13.28,0.046,90.0
2022-02-14T05:25:03,42.805,6.029,0.044,-0.015,-0.006,106.0,105.0,102.0,13.4,1505.2,330.0,-0.7,1.9,2470.817,13.28,0.046,108.8
2022-02-14T05:28:03,42.805,6.029,0.035,-0.002,0.011,105.0,105.0,102.0,13.4,1505.2,326.6,-0.7,1.8,2470.816,13.28,0.035,93.3
2022-02-14T05:31:03,42.805,6.029,0.053,-0.002,-0.028,105.0,108.0,102.0,13.4,1505.2,327.7,-0.8,1.8,2470.816,13.28,0.053,92.2
2022-02-14T05:34:03,42.805,6.029,0.039,0.005,-0.011,104.0,106.0,103.0,13.4,1505.2,324.9,-0.8,1.8,2470.822,13.28,0.039,82.7
2022-02-14T05:37:03,42.805,6.029,0.043,0.006,-0.019,104.0,105.0,102.0,13.4,1505.2,326.4,-0.7,1.8,2470.842,13.28,0.043,82.1
2022-02-14T05:40:03,42.805,6.029,0.061,-0.012,0.001,105.0,105.0,103.0,13.4,1505.2,329.1,-0.7,1.8,2470.847,13.28,0.062,101.1
2022-02-14T05:43:03,42.805,6.029,0.041,0.01,-0.002,104.0,105.0,102.0,13.4,1505.2,324.3,-0.8,1.8,2470.819,13.28,0.042,76.3
2022-02-14T05:46:03,42.805,6.029,0.019,0.007,-0.005,105.0,105.0,102.0,13.4,1505.2,325.0,-0.7,1.8,2470.795,13.28,0.02,69.8
2022-02-14T05:49:03,42.805,6.029,0.051,-0.003,-0.01,104.0,106.0,102.0,13.4,1505.2,327.6,-0.7,1.8,2470.823,13.28,0.051,93.4
2022-02-14T05:52:03,42.805,6.029,0.031,-0.004,-0.042,105.0,105.0,102.0,13.4,1505.2,329.8,-0.7,1.8,2470.819,13.28,0.031,97.3
2022-02-14T05:55:03,42.805,6.029,0.043,-0.002,-0.001,105.0,105.0,102.0,13.4,1505.2,324.1,-0.7,1.9,2470.845,13.28,0.043,92.7
2022-02-14T05:58:03,42.805,6.029,0.034,0.0,0.006,105.0,106.0,102.0,13.3,1505.2,324.0,-0.8,1.8,2470.826,13.28,0.034,90.0
2022-02-14T06:04:03,42.805,6.029,0.046,-0.013,-0.006,105.0,106.0,102.0,13.4,1505.2,332.1,-0.8,1.8,2470.853,13.28,0.047,105.8
2022-02-14T06:07:03,42.805,6.029,0.067,-0.011,0.0,104.0,105.0,103.0,13.4,1505.2,329.4,-0.7,1.8,2470.856,13.28,0.067,99.3
2022-02-14T06:10:03,42.805,6.029,0.056,0.012,0.016,105.0,105.0,103.0,13.4,1505.2,326.3,-0.8,1.8,2470.837,13.28,0.057,77.9
2022-02-14T06:13:03,42.805,6.029,0.053,0.007,-0.034,104.0,105.0,102.0,13.4,1505.2,328.4,-0.8,1.8,2470.824,13.28,0.053,82.5
2022-02-14T06:16:03,42.805,6.029,0.045,-0.014,0.008,103.0,105.0,102.0,13.4,1505.2,327.0,-0.7,1.8,2470.853,13.28,0.047,107.3
2022-02-14T06:19:03,42.805,6.029,0.022,-0.022,-0.005,105.0,104.0,101.0,13.4,1505.2,329.9,-0.7,1.8,2470.849,13.28,0.031,135.0
2022-02-14T06:22:03,42.805,6.029,0.04,-0.002,0.002,105.0,105.0,102.0,13.4,1505.2,329.8,-0.8,1.8,2470.833,13.28,0.04,92.9
2022-02-14T06:25:03,42.805,6.029,0.048,-0.011,0.014,104.0,104.0,102.0,13.4,1505.2,328.3,-0.7,1.9,2470.864,13.28,0.049,102.9
2022-02-14T06:28:03,42.805,6.029,0.048,-0.018,-0.019,105.0,105.0,102.0,13.3,1505.2,329.6,-0.8,1.8,2470.8,13.28,0.051,110.6
2022-02-14T06:31:03,42.805,6.029,0.062,-0.003,-0.015,104.0,106.0,102.0,13.4,1505.2,326.3,-0.8,1.8,2470.85,13.28,0.062,92.8
2022-02-14T06:34:03,42.805,6.029,0.036,-0.003,-0.026,104.0,104.0,103.0,13.3,1505.2,326.7,-0.7,1.9,2470.85,13.28,0.036,94.8
2022-02-14T06:37:03,42.805,6.029,0.054,0.003,-0.01,103.0,107.0,103.0,13.4,1505.2,326.5,-0.8,1.8,2470.848,13.28,0.054,86.8
2022-02-14T06:40:03,42.805,6.029,0.042,0.0,-0.009,104.0,106.0,103.0,13.3,1505.2,324.4,-0.8,1.8,2470.8,13.28,0.042,90.0
2022-02-14T06:49:03,42.805,6.029,0.018,-0.002,-0.02,104.0,104.0,103.0,13.3,1505.2,327.3,-0.8,1.8,2470.835,13.28,0.018,96.3
2022-02-14T06:52:03,42.805,6.029,0.065,0.009,0.001,104.0,105.0,102.0,13.4,1505.2,325.5,-0.8,1.8,2470.837,13.28,0.065,82.1
2022-02-14T06:55:03,42.805,6.029,0.034,0.005,-0.026,103.0,106.0,102.0,13.3,1505.2,324.6,-0.8,1.8,2470.846,13.28,0.034,81.6
2022-02-14T06:58:03,42.805,6.029,0.027,0.003,-0.023,104.0,105.0,102.0,13.4,1505.2,328.5,-0.7,1.8,2470.85,13.28,0.027,83.7
2022-02-14T07:04:03,42.805,6.029,0.044,-0.005,0.0,105.0,104.0,103.0,13.4,1505.2,324.6,-0.7,1.8,2470.856,13.28,0.044,96.5
2022-02-14T07:07:03,42.805,6.029,0.047,0.003,0.015,104.0,105.0,102.0,13.3,1505.2,331.0,-0.8,1.8,2470.867,13.28,0.047,86.4
2022-02-14T07:10:03,42.805,6.029,0.04,0.003,-0.04,104.0,105.0,103.0,13.4,1505.2,328.5,-0.8,1.8,2470.857,13.28,0.04,85.7
2022-02-14T07:13:03,42.805,6.029,0.044,-0.003,-0.006,104.0,105.0,103.0,13.3,1505.2,330.4,-0.8,1.8,2470.853,13.28,0.044,93.9
2022-02-14T07:16:03,42.805,6.029,0.059,-0.024,-0.03,104.0,106.0,102.0,13.3,1505.2,324.0,-0.8,1.8,2470.88,13.28,0.063,112.1
2022-02-14T07:19:03,42.805,6.029,0.038,-0.008,-0.004,104.0,106.0,102.0,13.3,1505.2,328.8,-0.7,1.8,2470.806,13.28,0.038,101.9
2022-02-14T07:22:03,42.805,6.029,0.038,-0.006,0.028,103.0,105.0,102.0,13.4,1505.2,326.5,-0.7,1.8,2470.851,13.28,0.038,99.0
2022-02-14T07:25:03,42.805,6.029,0.014,-0.02,-0.022,104.0,106.0,102.0,13.4,1505.2,325.5,-0.7,1.8,2470.829,13.28,0.024,145.0
2022-02-14T07:28:03,42.805,6.029,0.051,-0.015,0.006,105.0,105.0,101.0,13.4,1505.2,328.0,-0.7,1.8,2470.81,13.28,0.053,106.4
2022-02-14T07:31:03,42.805,6.029,0.053,0.003,0.005,105.0,105.0,103.0,13.3,1505.2,328.8,-0.8,1.8,2470.823,13.28,0.053,86.8
2022-02-14T07:34:03,42.805,6.029,0.044,-0.009,-0.048,105.0,106.0,102.0,13.4,1505.2,325.1,-0.8,1.8,2470.826,13.28,0.044,101.6
2022-02-14T07:37:03,42.805,6.029,0.032,-0.015,0.01,106.0,105.0,102.0,13.4,1505.2,325.2,-0.7,1.8,2470.85,13.28,0.035,115.1
2022-02-14T07:40:03,42.805,6.029,0.038,-0.01,-0.025,104.0,105.0,102.0,13.4,1505.2,323.4,-0.8,1.8,2470.822,13.28,0.039,104.7
2022-02-14T07:43:03,42.805,6.029,0.039,0.0,0.023,104.0,105.0,102.0,13.4,1505.2,325.7,-0.8,1.8,2470.831,13.28,0.039,90.0
2022-02-14T07:46:03,42.805,6.029,0.017,-0.003,-0.019,104.0,105.0,102.0,13.4,1505.2,328.6,-0.7,1.8,2470.815,13.28,0.017,100.0
2022-02-14T07:49:03,42.805,6.029,0.025,-0.02,-0.017,105.0,106.0,103.0,13.3,1505.2,327.0,-0.8,1.8,2470.88,13.28,0.032,128.7
2022-02-14T07:52:03,42.805,6.029,0.048,-0.011,0.013,104.0,106.0,103.0,13.4,1505.2,329.0,-0.8,1.8,2470.822,13.28,0.049,102.9
2022-02-14T07:55:03,42.805,6.029,0.049,-0.015,0.006,105.0,105.0,102.0,13.3,1505.2,325.0,-0.8,1.9,2470.836,13.28,0.051,107.0
2022-02-14T07:58:03,42.805,6.029,0.043,-0.022,-0.018,106.0,104.0,104.0,13.4,1505.2,330.7,-0.7,1.8,2470.834,13.28,0.048,117.1
2022-02-14T08:04:03,42.805,6.029,0.041,0.0,0.001,104.0,105.0,102.0,13.3,1505.2,326.5,-0.8,1.8,2470.811,13.28,0.041,90.0
2022-02-14T08:07:03,42.805,6.029,0.037,-0.014,0.023,105.0,105.0,102.0,13.4,1505.2,330.6,-0.7,1.8,2470.832,13.28,0.039,110.7
2022-02-14T08:10:03,42.805,6.029,0.044,-0.01,0.015,104.0,106.0,103.0,13.4,1505.2,325.5,-0.8,1.8,2470.838,13.28,0.045,102.8
2022-02-14T08:13:03,42.805,6.029,0.056,-0.011,0.0,103.0,105.0,102.0,13.3,1505.2,327.9,-0.8,1.8,2470.852,13.28,0.057,101.1
2022-02-14T08:16:03,42.805,6.029,0.053,-0.021,0.031,105.0,104.0,102.0,13.3,1505.2,327.9,-0.7,1.8,2470.823,13.28,0.057,111.6
2022-02-14T08:19:03,42.805,6.029,0.041,-0.016,-0.029,105.0,106.0,103.0,13.3,1505.2,328.8,-0.7,1.8,2470.826,13.28,0.044,111.3
2022-02-14T08:22:03,42.805,6.029,0.02,-0.005,-0.004,105.0,105.0,101.0,13.4,1505.2,325.5,-0.8,1.8,2470.814,13.28,0.02,104.0
2022-02-14T08:25:03,42.805,6.029,0.057,-0.021,-0.012,104.0,105.0,102.0,13.4,1505.2,326.9,-0.7,1.8,2470.809,13.28,0.06,110.2
2022-02-14T08:28:03,42.805,6.029,0.039,-0.009,-0.018,105.0,104.0,103.0,13.4,1505.2,325.7,-0.8,1.8,2470.82,13.28,0.04,103.0
2022-02-14T08:31:03,42.805,6.029,0.044,-0.019,0.001,105.0,104.0,102.0,13.4,1505.2,328.0,-0.7,1.9,2470.809,13.28,0.047,113.4
2022-02-14T08:34:03,42.805,6.029,0.043,-0.034,0.009,105.0,105.0,102.0,13.4,1505.2,328.6,-0.8,1.8,2470.819,13.28,0.054,128.3
2022-02-14T08:37:03,42.805,6.029,0.04,-0.007,-0.033,104.0,104.0,103.0,13.4,1505.2,323.8,-0.8,1.8,2470.779,13.28,0.04,99.9
2022-02-14T08:40:03,42.805,6.029,0.045,-0.047,-0.022,104.0,104.0,102.0,13.3,1505.2,328.6,-0.7,1.8,2470.799,13.28,0.065,136.2
2022-02-14T08:43:03,42.805,6.029,0.04,-0.003,-0.007,106.0,105.0,103.0,13.3,1505.2,325.0,-0.7,1.8,2470.811,13.28,0.04,94.3
2022-02-14T08:46:03,42.805,6.029,0.033,0.0,-0.016,105.0,105.0,102.0,13.4,1505.2,328.2,-0.8,1.8,2470.768,13.28,0.033,90.0
2022-02-14T08:49:03,42.805,6.029,0.042,-0.015,-0.005,104.0,104.0,103.0,13.4,1505.2,324.9,-0.8,1.8,2470.807,13.28,0.044,109.6
2022-02-14T08:52:03,42.805,6.029,0.036,-0.005,-0.016,104.0,106.0,102.0,13.3,1505.2,323.1,-0.8,1.8,2470.821,13.28,0.036,97.9
2022-02-14T08:55:03,42.805,6.029,0.048,-0.008,0.006,105.0,105.0,103.0,13.3,1505.2,326.9,-0.8,1.8,2470.761,13.28,0.048,99.5
2022-02-14T08:58:03,42.805,6.029,0.048,-0.001,0.024,105.0,104.0,103.0,13.3,1505.2,323.0,-0.8,1.8,2470.748,13.28,0.048,91.2
2022-02-14T09:04:03,42.805,6.029,0.032,-0.003,-0.005,105.0,105.0,103.0,13.4,1505.2,327.8,-0.7,1.8,2470.811,13.28,0.032,95.4
2022-02-14T09:07:03,42.805,6.029,0.021,0.001,0.026,105.0,105.0,102.0,13.3,1505.2,326.0,-0.7,1.8,2470.824,13.28,0.021,87.3
2022-02-14T09:10:03,42.805,6.029,0.037,0.008,0.004,105.0,106.0,103.0,13.4,1505.2,324.4,-0.7,1.8,2470.787,13.28,0.037,77.8
2022-02-14T09:13:03,42.805,6.029,0.032,-0.002,0.022,104.0,105.0,103.0,13.4,1505.2,329.3,-0.7,1.8,2470.777,13.28,0.032,93.6
2022-02-14T09:16:03,42.805,6.029,0.053,-0.019,-0.011,104.0,104.0,102.0,13.4,1505.2,327.5,-0.8,1.8,2470.812,13.28,0.056,109.7
2022-02-14T09:19:03,42.805,6.029,0.018,0.0,-0.007,105.0,104.0,103.0,13.3,1505.2,326.0,-0.7,1.8,2470.771,13.28,0.018,90.0
2022-02-14T09:22:03,42.805,6.029,0.018,-0.008,-0.012,106.0,104.0,102.0,13.4,1505.2,328.9,-0.7,1.8,2470.79,13.28,0.019,114.0
2022-02-14T09:25:03,42.805,6.029,0.049,-0.01,0.021,104.0,105.0,103.0,13.4,1505.2,331.0,-0.7,1.8,2470.759,13.28,0.05,101.5
2022-02-14T09:28:03,42.805,6.029,0.032,0.011,0.01,105.0,104.0,103.0,13.4,1505.2,328.8,-0.8,1.8,2470.745,13.28,0.033,71.0
2022-02-14T09:31:03,42.805,6.029,0.036,0.001,0.027,106.0,104.0,102.0,13.4,1505.2,326.1,-0.7,1.8,2470.78,13.28,0.036,88.4
2022-02-14T09:34:03,42.805,6.029,0.013,-0.003,0.006,105.0,107.0,105.0,13.4,1505.2,331.0,-0.8,1.8,2470.757,13.28,0.013,103.0
2022-02-14T09:37:03,42.805,6.029,0.02,-0.004,0.012,105.0,104.0,103.0,13.3,1505.2,329.6,-0.7,1.8,2470.766,13.28,0.02,101.3
2022-02-14T09:40:03,42.805,6.029,0.023,-0.005,-0.025,105.0,104.0,103.0,13.4,1505.2,325.7,-0.7,1.8,2470.743,13.28,0.023,102.3
2022-02-14T09:43:03,42.805,6.029,0.035,-0.02,-0.02,104.0,105.0,103.0,13.4,1505.2,325.3,-0.8,1.8,2470.733,13.28,0.04,119.7
2022-02-14T09:46:03,42.805,6.029,0.046,-0.013,-0.01,105.0,105.0,103.0,13.3,1505.2,329.4,-0.8,1.8,2470.763,13.28,0.047,105.8
2022-02-14T09:49:03,42.805,6.029,0.039,0.012,0.011,105.0,104.0,102.0,13.4,1505.2,325.3,-0.8,1.8,2470.751,13.28,0.04,72.9
2022-02-14T09:52:03,42.805,6.029,0.032,-0.018,-0.007,105.0,105.0,103.0,13.4,1505.2,328.1,-0.8,1.8,2470.762,13.28,0.036,119.4
2022-02-14T09:55:03,42.805,6.029,0.04,-0.008,0.017,104.0,104.0,103.0,13.4,1505.2,324.3,-0.8,1.8,2470.737,13.28,0.04,101.3
2022-02-14T09:58:03,42.805,6.029,0.027,-0.001,0.013,104.0,109.0,102.0,13.4,1505.2,329.0,-0.8,1.8,2470.751,13.28,0.027,92.1
2022-02-14T10:04:03,42.805,6.029,0.037,-0.019,0.014,105.0,103.0,102.0,13.4,1505.2,330.1,-0.7,1.8,2470.739,13.28,0.041,117.2
2022-02-14T10:07:03,42.805,6.029,0.044,-0.031,-0.005,106.0,105.0,103.0,13.4,1505.2,330.5,-0.8,1.8,2470.776,13.28,0.053,125.2
2022-02-14T10:10:03,42.805,6.029,0.045,-0.022,-0.005,104.0,104.0,102.0,13.4,1505.2,326.1,-0.8,1.8,2470.73,13.28,0.05,116.1